Location: Newark
(34.9500°N, 139.9667°E)
Time: 20:18:26
(UTC+00:00)

Vanguard 2 Rocket - Pass Details

Date: 16 December 2019
Orbit: 554 x 3326 km, 32.9° (Epoch: 25 January)

Event Time Altitude Azimuth Distance (km) Brightness Sun altitude
Rises 03:27:58 0° 203° (SSW) 7,046 12.6 30.4°
Reaches altitude 10° 03:33:42 10° 193° (SSW) 6,203 12.8 30.1°
Maximum altitude 03:49:16 29° 142° (SE) 4,735 11.2 29.2°
Drops below altitude 10° 04:02:48 10° 91° (E) 5,454 10.7 28.2°
Sets 04:07:17 0° 81° (E) 6,112 10.8 27.8°
